Погода в Гилёво

Россия / Тюменская область     57°36′42″N   67°05′10″E
темп.,
°C
ветер,
м/с
пор.,
м/с
влажн.,
%
обл.,
%
осадки,
мм/ч
давл.,
гПа
погр.,
м
11 мая, вт
вт1123:00+12вюв22465 0.0 102617
02:00+11ююз11533 0.0 102710
05:00+10ююв00560 0.0 102710
08:00+17юз11385 0.0 1027297
11:00+21зсз22255 0.0 10271698
14:00+23зсз3321100 0.0 10262043
17:00+23зсз3420100 0.0 10252091
20:00+18зсз2335100 0.0 102547
12 мая, ср
ср1223:00+14з234370 0.0 102644
02:00+13з384757 0.0 1025147
05:00+13ссз265280 0.0 1025204
08:00+16с465957 0.0 1026730
11:00+19ссз463498 0.0 10261368
14:00+21ссз4732100 0.0 10251861
17:00+19ссз4742100 0.0 1025801
20:00+16ссз2652100 0.0 1025308
13 мая, чт
чт1323:00+15з1156100 0.0 102515
02:00+14юз2561100 0.0 1024144
05:00+13зсз287065 0.0 1023185
08:00+19сз4951100 0.0 1023520
11:00+23сз584121 0.0 10221743
14:00+22ссз4847100 0.0 10221427
17:00+22ссз5104852 0.0 10231898
20:00+19с38472 0.0 1024265
14 мая, пт
пт1423:00+14ссв23635 0.0 102654
02:00+11всв24695 0.0 102780
05:00+10вюв22704 0.0 102939
08:00+16ююв22486 0.0 1029432
11:00+21юз2235100 0.0 10281142
14:00+24зюз343251 0.0 10261779
17:00+25зюз373316 0.0 10242163
20:00+23ююз494549 0.0 1022308
15 мая, сб
сб1523:00+19ююз495532 0.0 1021195
02:00+17зюз256051 0.0 102068
05:00+17з236021 0.0 102048
08:00+23зсз23435 0.0 1020310
11:00+28зсз473092 0.0 10202317
14:00+29зсз462769 0.0 10192920
17:00+28зсз59305 0.0 10162868
20:00